Voltar ao catálogo

DELTA 1 DEB

AtivoPO
NORAD 21386·DEBRIS·🇺🇸 United States

Lançado Jun 12, 1975 de Vandenberg Space Force Base

Loading…

Próximas Passagens (próximas 24 horas)

TLE

AtualizadoSource: Space-Track

Época: Sep 14, 2026, 14:15 UTC

1 21386U 75052DG  26257.59380252  .00000231  00000-0  53726-3 0  9997
2 21386  99.5593 296.9861 0179211   1.8556 151.7054 13.29353098704714

Acompanhe DELTA 1 DEB em tempo real com AllMySat

Download on the App Store